Content
SEND FEEDBACK

Daily
Averages
Monthly
Summary
Switzerland

GENEVA, SWITZERLAND


Home > Europe > Switzerland
Elevation: 1364 feet     Latitude: 46 15N     Longitude: 006 08E

WEATHER
 
SELECT A DAY
Number of Records: 306,355;   Date Range: 7/1/96 - 9/20/14
 
SHARE

PRINT THIS DATA

[ ← Previous Day ]
WEATHER ALMANAC - JULY 28, 2013
[ Next Day → ]
[ °C ]   °F
Weather ElementAverageHighLow
Temperature75.9 °F86 °F (12:50 pm)66.2 °F (11:20 pm)
Dewpoint59.9 °F68 °F (7:20 pm)51.8 °F (1:20 am)
Humidity59.5 %100 % (8:20 pm)26 % (1:00 am)
Barometer29.90 in30.04 in (11:20 pm)29.78 in (2:00 pm)
Wind Speed4.9 mph15 mph (2:50 am)
Weather ElementAverage
Visibility7.5 mi
Wind DirectionESE (127 °)

Weather ElementTotal
Precipitation---
Cooling Degree Days11.1 (Base 65)
Growing Degree Days26.1 (Base 50)
Averaged from 66 records on July 28, 2013
WEATHER CONDITIONS BREAKOUT
WIND DIRECTION BREAKOUT
WEATHER BY HOUR - JULY 28, 2013
[ °C ]   °F
Local TimeTemperatureDewpointHumidityBarometerVisibilityWind DirectionWind SpeedGust SpeedPrecipitationEventsConditions
12:20 AM80.6 °F53.6 °F39 %29.86 inSW (230°)9.2 mphClear
12:50 AM80.6 °F53.6 °F39 %29.89 inSW (220°)8.1 mphClear
1:00 AM81.0 °F52.0 °F26 %29.81 inSW (230°)8.1 mph
1:20 AM80.6 °F51.8 °F37 %29.89 inSW (220°)9.2 mphClear
1:50 AM80.6 °F53.6 °F39 %29.89 inSSW (200°)10.4 mphClear
2:00 AM80.0 °F52.0 °F27 %29.82 in25.0 miSSW (210°)11.5 mphPartly Cloudy
2:20 AM80.6 °F51.8 °F37 %29.89 inSW (230°)9.2 mphClear
2:50 AM80.6 °F51.8 °F37 %29.89 in6.2 miSSW (210°)15.0 mphMostly Cloudy
3:00 AM80.0 °F52.0 °F28 %29.83 inSW (220°)11.5 mph
3:50 AM78.8 °F53.6 °F42 %29.89 in6.2 miSouth (180°)6.9 mphMostly Cloudy
4:00 AM77.0 °F54.0 °F35 %29.83 inWSW (250°)4.6 mph
4:20 AM75.2 °F55.4 °F50 %29.89 in6.2 miVariable1.2 mphMostly Cloudy
4:50 AM73.4 °F57.2 °F57 %29.89 inWNW (290°)1.2 mphClear
5:20 AM71.6 °F59.0 °F64 %29.89 inCalmClear
5:50 AM69.8 °F57.2 °F64 %29.89 in6.2 miCalmScattered Clouds
6:00 AM70.0 °F57.0 °F54 %29.84 inWest (280°)2.3 mph
6:20 AM69.8 °F59.0 °F68 %29.89 in6.2 miVariable1.2 mphScattered Clouds
6:50 AM69.8 °F59.0 °F68 %29.89 in6.2 miCalmScattered Clouds
7:00 AM69.0 °F60.0 °F65 %29.84 inEast (90°)1.2 mph
7:20 AM69.8 °F59.0 °F68 %29.89 in6.2 miVariable2.3 mphMostly Cloudy
7:50 AM69.8 °F60.8 °F73 %29.89 in6.2 miVariable2.3 mphMostly Cloudy
8:00 AM71.0 °F61.0 °F63 %29.84 in25.0 miNorth3.5 mphMostly Cloudy
8:20 AM71.6 °F60.8 °F69 %29.89 in6.2 miVariable3.5 mphMostly Cloudy
8:50 AM73.4 °F62.6 °F69 %29.89 in6.2 miVariable2.3 mphMostly Cloudy
9:00 AM75.0 °F62.0 °F55 %29.85 inNorth2.3 mph
9:20 AM77.0 °F60.8 °F57 %29.89 in6.2 miVariable1.2 mphMostly Cloudy
9:50 AM77.0 °F60.8 °F57 %29.89 inEast (80°)3.5 mphClear
10:00 AM76.0 °F60.0 °F48 %29.84 inSW (230°)1.2 mph
10:20 AM80.6 °F60.8 °F51 %29.92 inVariable2.3 mphClear
10:50 AM82.4 °F57.2 °F42 %29.89 inVariable2.3 mphClear
11:20 AM84.2 °F57.2 °F40 %29.89 inVariable4.6 mphClear
11:50 AM84.2 °F55.4 °F37 %29.89 inSSW (210°)6.9 mphClear
12:00 PM83.0 °F54.0 °F26 %29.81 inSSW (210°)9.2 mph
12:20 PM84.2 °F55.4 °F37 %29.89 inSSW (210°)10.4 mphClear
12:50 PM86.0 °F55.4 °F35 %29.89 in6.2 miSSW (200°)8.1 mphMostly Cloudy
1:00 PM85.0 °F57.0 °F28 %29.80 inSSW (210°)6.9 mph
1:20 PM86.0 °F57.2 °F37 %29.89 in6.2 miWSW (240°)8.1 mphMostly Cloudy
1:50 PM86.0 °F57.2 °F37 %29.86 in6.2 miSSW (210°)6.9 mphMostly Cloudy
2:00 PM85.0 °F56.0 °F27 %29.78 in28.0 miSW (220°)8.1 mphScattered Clouds
2:20 PM86.0 °F57.2 °F37 %29.86 in6.2 miSSW (200°)8.1 mphMostly Cloudy
2:50 PM84.2 °F57.2 °F40 %29.89 in6.2 miSW (220°)5.8 mphMostly Cloudy
3:00 PM84.0 °F59.0 °F33 %29.80 inWest (270°)4.6 mph
3:20 PM84.2 °F59.0 °F42 %29.89 in6.2 miWSW (240°)5.8 mphMostly Cloudy
3:50 PM82.4 °F60.8 °F48 %29.89 in6.2 miWest (260°)5.8 mphMostly Cloudy
4:00 PM82.0 °F61.0 °F39 %29.83 inWest (280°)5.8 mph
4:20 PM80.6 °F62.6 °F54 %29.89 in6.2 miNW (320°)4.6 mphMostly Cloudy
4:50 PM80.6 °F62.6 °F54 %29.89 in6.2 miVariable3.5 mphThunderstormMostly Cloudy
5:20 PM78.8 °F62.6 °F57 %29.89 in6.2 miVariable4.6 mphThunderstormThunderstorm
5:50 PM68.0 °F64.4 °F88 %29.95 in6.2 miVariable3.5 mphRain-ThunderstormLight Rain
6:00 PM69.0 °F66.0 °F86 %29.90 inNNE (20°)4.6 mph
6:20 PM68.0 °F66.2 °F94 %29.95 in6.2 miSE (140°)8.1 mphRainLight Rain
6:50 PM68.0 °F66.2 °F94 %29.95 in6.2 miEast (80°)8.1 mphRainLight Rain Showers
7:00 PM69.0 °F67.0 °F89 %29.92 inEast (90°)3.5 mph
7:20 PM69.8 °F68.0 °F94 %29.98 in6.2 miVariable3.5 mphMostly Cloudy
7:50 PM69.8 °F68.0 °F94 %29.98 in6.2 miVariable2.3 mphMostly Cloudy
8:00 PM69.0 °F67.0 °F89 %29.94 in7.0 miNW (310°)2.3 mphRainLight Rain Showers
8:20 PM68.0 °F68.0 °F100 %29.98 in5.6 miVariable2.3 mphRainLight Rain Showers
8:50 PM68.0 °F68.0 °F100 %29.98 in6.2 miWest (260°)3.5 mphRainLight Rain Showers
9:00 PM69.0 °F67.0 °F90 %29.96 inWNW (290°)3.5 mph
9:20 PM68.0 °F68.0 °F100 %29.98 in6.2 miVariable1.2 mphMostly Cloudy
9:50 PM68.0 °F66.2 °F94 %29.98 in6.2 miVariable2.3 mphRainLight Rain Showers
10:00 PM68.0 °F65.0 °F88 %29.95 inNW (320°)3.5 mph
10:20 PM68.0 °F66.2 °F94 %30.01 in6.2 miVariable2.3 mphRain-ThunderstormLight Thunderstorms and Rain
10:50 PM68.0 °F66.2 °F94 %30.01 in3.1 miVariable2.3 mphRain-ThunderstormThunderstorms and Rain
11:20 PM66.2 °F66.2 °F100 %30.04 in2.8 miVariable5.8 mphRain-ThunderstormLight Thunderstorms and Rain
11:50 PM66.2 °F66.2 °F100 %30.04 in3.7 miVariable2.3 mphRain-ThunderstormLight Thunderstorms and Rain
Hourly data recorded from LSGG, located miles away from Geneva, Switzerland







STORIES FROM OUR PARTNERS